Location: Izdebno
(52.6670°N, 16.2170°E)
Time: 12:47:20
(UTC+02:00)

A-11 Canister half - Pass Details

Date: 24 February 2024
Orbit: 1525 x 1683 km, 47.3° (Epoch: 24 April)

Event Time Altitude Azimuth Distance (km) Brightness Sun altitude
Exits shadow 04:30:29 18° 209° (SSW) 3,114 10.2 -22.4°
Drops below altitude 10° 04:34:18 10° 186° (S) 3,720 10.8 -21.9°
Sets 04:38:27 0° 171° (S) 4,722 11.5 -21.2°
